TimeCDT,TemperatureF,Dew PointF,Humidity,Sea Level PressureIn,VisibilityMPH,Wind Direction,Wind SpeedMPH,Gust SpeedMPH,PrecipitationIn,Events,Conditions,WindDirDegrees,DateUTC
12:15 AM,61.7,57.6,86,30.02,10.0,Calm,Calm,-,N/A,,Mostly Cloudy,0,2012-10-10 05:15:00
12:35 AM,61.2,57.4,87,30.02,10.0,East,3.5,-,N/A,,Scattered Clouds,90,2012-10-10 05:35:00
12:55 AM,61.0,57.7,89,30.02,10.0,Calm,Calm,-,N/A,,Mostly Cloudy,0,2012-10-10 05:55:00
1:15 AM,61.3,57.7,88,30.02,10.0,East,3.5,-,N/A,,Mostly Cloudy,80,2012-10-10 06:15:00
1:35 AM,61.3,57.6,87,30.03,10.0,East,3.5,-,N/A,,Mostly Cloudy,80,2012-10-10 06:35:00
1:55 AM,60.6,57.4,89,30.03,10.0,Calm,Calm,-,N/A,,Mostly Cloudy,0,2012-10-10 06:55:00
2:15 AM,60.3,57.4,90,30.03,10.0,East,3.5,-,N/A,,Mostly Cloudy,90,2012-10-10 07:15:00
2:35 AM,61.0,57.6,88,30.04,10.0,Calm,Calm,-,N/A,,Overcast,0,2012-10-10 07:35:00
2:55 AM,61.3,57.6,87,30.04,10.0,ENE,6.9,-,N/A,,Overcast,70,2012-10-10 07:55:00
3:15 AM,61.2,57.6,88,30.05,10.0,ENE,3.5,-,N/A,,Overcast,60,2012-10-10 08:15:00
3:35 AM,60.4,57.6,90,30.05,10.0,NE,3.5,-,N/A,,Overcast,40,2012-10-10 08:35:00
3:55 AM,60.4,57.6,90,30.05,10.0,Calm,Calm,-,N/A,,Overcast,0,2012-10-10 08:55:00
4:15 AM,60.4,57.4,90,30.05,10.0,Calm,Calm,-,N/A,,Overcast,0,2012-10-10 09:15:00
4:35 AM,60.8,57.2,88,30.06,10.0,NE,3.5,-,N/A,,Overcast,50,2012-10-10 09:35:00
4:55 AM,60.1,57.2,90,30.07,10.0,NE,4.6,-,N/A,,Overcast,40,2012-10-10 09:55:00
5:15 AM,60.1,57.2,90,30.07,10.0,Calm,Calm,-,N/A,,Overcast,0,2012-10-10 10:15:00
5:35 AM,60.3,57.2,90,30.09,10.0,NNE,3.5,-,N/A,,Overcast,30,2012-10-10 10:35:00
5:55 AM,60.1,57.2,90,30.10,10.0,Calm,Calm,-,N/A,,Overcast,0,2012-10-10 10:55:00
6:15 AM,60.4,57.2,89,30.11,10.0,NNE,3.5,-,N/A,,Overcast,20,2012-10-10 11:15:00
6:35 AM,60.6,57.6,90,30.12,10.0,NNE,4.6,-,N/A,,Overcast,20,2012-10-10 11:35:00
6:55 AM,61.7,57.7,87,30.12,10.0,NNE,6.9,-,N/A,,Overcast,30,2012-10-10 11:55:00
7:15 AM,60.8,57.2,88,30.13,10.0,NE,6.9,-,N/A,,Mostly Cloudy,40,2012-10-10 12:15:00
7:55 AM,61.2,56.7,85,30.16,10.0,NE,4.6,-,N/A,,Overcast,40,2012-10-10 12:55:00
8:15 AM,61.2,56.5,85,30.17,10.0,NE,4.6,-,N/A,,Overcast,50,2012-10-10 13:15:00
8:35 AM,61.3,56.7,85,30.18,10.0,NE,3.5,-,N/A,,Overcast,40,2012-10-10 13:35:00
8:55 AM,61.7,56.5,83,30.18,10.0,NE,5.8,-,N/A,,Overcast,40,2012-10-10 13:55:00
9:15 AM,61.7,56.3,82,30.19,10.0,NE,6.9,-,N/A,,Overcast,50,2012-10-10 14:15:00
9:35 AM,62.6,56.3,80,30.19,10.0,ENE,6.9,-,N/A,,Overcast,60,2012-10-10 14:35:00
9:55 AM,63.0,56.3,79,30.19,10.0,ENE,8.1,-,N/A,,Overcast,60,2012-10-10 14:55:00
10:15 AM,63.7,56.1,76,30.19,10.0,ENE,6.9,-,N/A,,Overcast,70,2012-10-10 15:15:00
10:35 AM,65.1,56.5,74,30.19,10.0,East,10.4,-,N/A,,Overcast,90,2012-10-10 15:35:00
10:55 AM,64.9,55.8,72,30.20,10.0,East,10.4,17.3,N/A,,Overcast,90,2012-10-10 15:55:00
11:15 AM,64.8,56.1,74,30.20,10.0,East,6.9,-,N/A,,Overcast,90,2012-10-10 16:15:00
11:55 AM,65.3,55.8,71,30.19,10.0,East,11.5,-,N/A,,Overcast,100,2012-10-10 16:55:00
12:15 PM,65.8,55.4,69,30.19,10.0,East,6.9,-,N/A,,Overcast,90,2012-10-10 17:15:00
12:35 PM,65.7,55.2,69,30.20,10.0,ENE,8.1,-,N/A,,Overcast,70,2012-10-10 17:35:00
12:55 PM,66.2,54.9,67,30.19,10.0,East,6.9,-,N/A,,Overcast,90,2012-10-10 17:55:00
1:15 PM,66.4,55.4,68,30.18,10.0,East,6.9,-,N/A,,Overcast,80,2012-10-10 18:15:00
1:35 PM,68.4,55.9,64,30.18,10.0,East,5.8,-,N/A,,Overcast,100,2012-10-10 18:35:00
1:55 PM,68.7,55.4,62,30.17,10.0,ENE,6.9,-,N/A,,Overcast,70,2012-10-10 18:55:00
2:15 PM,69.1,55.4,62,30.15,10.0,East,6.9,-,N/A,,Overcast,80,2012-10-10 19:15:00
2:35 PM,70.3,55.9,60,30.15,10.0,ESE,5.8,-,N/A,,Overcast,110,2012-10-10 19:35:00
2:55 PM,70.3,55.9,60,30.14,10.0,ESE,6.9,-,N/A,,Overcast,110,2012-10-10 19:55:00
3:15 PM,70.2,55.9,61,30.13,10.0,East,5.8,-,N/A,,Overcast,90,2012-10-10 20:15:00
3:35 PM,70.7,56.7,61,30.13,10.0,East,4.6,-,N/A,,Overcast,90,2012-10-10 20:35:00
3:55 PM,70.5,55.8,59,30.13,10.0,ESE,8.1,-,N/A,,Overcast,120,2012-10-10 20:55:00
4:15 PM,70.3,56.3,61,30.13,10.0,East,5.8,-,N/A,,Overcast,100,2012-10-10 21:15:00
4:35 PM,70.9,56.5,60,30.12,10.0,ESE,6.9,-,N/A,,Overcast,120,2012-10-10 21:35:00
4:55 PM,70.5,55.8,59,30.11,10.0,ESE,8.1,-,N/A,,Overcast,120,2012-10-10 21:55:00
5:15 PM,70.9,55.8,59,30.11,10.0,ESE,8.1,-,N/A,,Overcast,110,2012-10-10 22:15:00
5:35 PM,70.3,55.6,59,30.11,10.0,ESE,6.9,-,N/A,,Overcast,110,2012-10-10 22:35:00
5:55 PM,70.2,55.9,61,30.10,10.0,ESE,5.8,-,N/A,,Overcast,110,2012-10-10 22:55:00
6:15 PM,69.8,56.3,62,30.11,10.0,ESE,5.8,-,N/A,,Overcast,120,2012-10-10 23:15:00
6:35 PM,69.4,56.1,62,30.11,10.0,ESE,5.8,-,N/A,,Overcast,120,2012-10-10 23:35:00
6:55 PM,68.9,56.3,64,30.11,10.0,SE,5.8,-,N/A,,Overcast,130,2012-10-10 23:55:00
7:15 PM,68.5,56.3,65,30.12,10.0,ESE,3.5,-,N/A,,Overcast,110,2012-10-11 00:15:00
7:35 PM,68.2,56.5,66,30.12,10.0,Calm,Calm,-,N/A,,Overcast,0,2012-10-11 00:35:00
7:55 PM,67.3,57.2,70,30.12,10.0,ESE,3.5,-,N/A,,Overcast,110,2012-10-11 00:55:00
8:15 PM,67.6,56.8,68,30.13,10.0,ESE,5.8,-,N/A,,Overcast,120,2012-10-11 01:15:00
8:35 PM,67.6,56.3,67,30.13,10.0,SE,5.8,-,N/A,,Overcast,130,2012-10-11 01:35:00
8:55 PM,67.5,56.3,67,30.13,10.0,SE,6.9,-,N/A,,Overcast,140,2012-10-11 01:55:00
9:15 PM,67.3,56.3,68,30.14,10.0,SE,9.2,-,N/A,,Overcast,130,2012-10-11 02:15:00
9:35 PM,67.1,56.3,68,30.14,10.0,SE,8.1,-,N/A,,Overcast,130,2012-10-11 02:35:00
9:55 PM,66.6,56.5,70,30.15,10.0,SE,5.8,-,N/A,,Overcast,130,2012-10-11 02:55:00
10:15 PM,66.4,56.5,70,30.15,10.0,SE,9.2,-,N/A,,Overcast,130,2012-10-11 03:15:00
10:35 PM,66.2,56.3,70,30.15,10.0,SE,8.1,-,N/A,,Overcast,130,2012-10-11 03:35:00
10:55 PM,66.0,56.1,70,30.15,10.0,ESE,9.2,-,N/A,,Overcast,120,2012-10-11 03:55:00
11:15 PM,65.7,56.3,72,30.15,10.0,SE,12.7,16.1,N/A,,Overcast,130,2012-10-11 04:15:00
11:35 PM,65.5,56.3,72,30.15,10.0,SE,9.2,-,N/A,,Overcast,130,2012-10-11 04:35:00
11:55 PM,65.3,56.7,74,30.14,10.0,ESE,8.1,-,N/A,,Overcast,120,2012-10-11 04:55:00